PDT,Max TemperatureF,Mean TemperatureF,Min TemperatureF,Max Dew PointF,MeanDew PointF,Min DewpointF,Max Humidity, Mean Humidity, Min Humidity, Max Sea Level PressureIn, Mean Sea Level PressureIn, Min Sea Level PressureIn, Max VisibilityMiles, Mean VisibilityMiles, Min VisibilityMiles, Max Wind SpeedMPH, Mean Wind SpeedMPH, Max Gust SpeedMPH,PrecipitationIn, CloudCover, Events, WindDirDegrees
2012-9-1,88,71,54,52,44,31,83,51,18,30.00,29.95,29.91,10,10,10,12,3,16,0.00,0,,170
2012-9-2,98,75,52,51,42,36,55,33,11,29.97,29.90,29.81,10,8,3,15,2,18,0.00,2,,160
2012-9-3,96,77,57,49,44,37,72,43,14,29.96,29.90,29.83,10,7,1,13,2,17,0.00,0,,167
2012-9-4,98,78,57,48,38,21,62,35,7,30.00,29.93,29.85,10,7,1,9,2,13,0.00,0,,225
2012-9-5,97,77,57,51,38,28,51,30,9,29.94,29.89,29.82,10,8,1,14,3,17,0.00,0,,226
2012-9-6,94,78,62,50,46,42,56,38,20,29.95,29.89,29.83,10,10,8,18,4,22,0.00,0,,202
2012-9-7,96,76,56,51,46,36,62,38,14,30.04,29.97,29.90,10,10,6,12,2,15,0.00,0,,191
2012-9-8,96,80,63,53,50,46,63,41,19,30.00,29.91,29.81,10,10,10,13,2,18,0.00,0,,190
2012-9-9,92,76,60,52,42,19,69,38,7,29.92,29.86,29.79,10,10,10,15,3,21,0.00,0,,188
2012-9-10,96,76,55,43,32,16,55,31,6,29.91,29.83,29.74,10,10,10,14,4,24,0.00,0,,332
2012-9-11,97,77,56,40,37,33,43,27,11,29.88,29.83,29.79,10,10,10,16,3,41,0.00,0,,317
2012-9-12,98,77,56,44,39,31,61,36,10,30.02,29.95,29.89,10,10,10,9,3,17,0.00,0,,212
2012-9-13,100,79,57,46,42,36,62,37,12,30.06,30.00,29.93,10,10,10,8,2,12,0.00,0,,215
2012-9-14,96,79,61,51,47,45,60,40,19,30.03,29.97,29.90,10,10,10,20,2,26,0.00,0,,183
2012-9-15,94,77,60,52,44,32,69,41,12,30.04,29.98,29.92,10,10,10,16,2,20,0.00,0,,196
2012-9-16,96,75,53,41,36,28,59,34,9,30.00,29.95,29.89,10,10,10,14,3,18,0.00,0,,324
2012-9-17,100,78,55,52,39,28,55,32,8,29.99,29.92,29.83,10,10,10,9,2,12,0.00,0,,193
2012-9-18,94,76,57,51,43,32,72,43,14,30.04,29.97,29.90,10,10,10,10,1,15,0.00,0,,160
2012-9-19,94,75,55,43,41,33,61,37,12,30.04,29.98,29.91,10,10,10,9,1,12,0.00,0,,170
2012-9-20,96,75,53,48,41,31,66,39,11,30.02,29.95,29.86,10,10,10,12,2,15,0.00,0,,175
2012-9-21,95,75,55,46,42,32,66,39,11,29.96,29.89,29.81,10,10,10,14,2,16,0.00,0,,162
2012-9-22,95,75,55,43,40,32,57,35,12,29.92,29.87,29.81,10,10,10,12,3,15,0.00,0,,48
2012-9-23,93,78,63,48,43,37,48,32,16,29.91,29.86,29.80,10,10,10,16,3,20,0.00,0,,164
2012-9-24,92,78,64,47,38,28,48,29,10,29.95,29.88,29.81,10,10,10,24,8,32,0.00,0,,348
2012-9-25,96,80,63,46,41,35,42,27,12,29.88,29.82,29.74,10,10,9,13,3,17,0.00,0,,333
2012-9-26,94,75,56,49,45,41,66,41,16,29.86,29.81,29.75,10,10,7,9,2,13,0.00,0,,142
2012-9-27,96,77,58,50,44,34,72,43,14,29.90,29.85,29.78,10,10,10,10,2,12,0.00,0,,203
2012-9-28,99,79,58,45,40,34,55,33,11,29.89,29.84,29.76,10,10,10,9,2,12,0.00,0,,314
2012-9-29,99,77,55,42,38,29,55,32,9,29.99,29.94,29.89,10,10,10,9,1,12,0.00,0,,160
2012-9-30,100,77,54,42,35,23,55,32,8,30.06,29.99,29.93,10,10,10,13,2,17,0.00,0,,342